Location: Bramevaque
(42.9773°N, 0.5757°E)
Time: 12:34:01
(UTC+00:00)

Cosmos 1980 Rocket - Pass Details

Date: 15 May 2026
Orbit: 827 x 850 km, 71.0° (Epoch: 7 June)

Event Time Altitude Azimuth Distance (km) Brightness Sun altitude
Rises 19:35:50 0° 336° (NNW) 3,423 6.4 -4.3°
Reaches altitude 10° 19:38:18 10° 337° (NNW) 2,483 5.6 -4.7°
Maximum altitude 19:44:02 82° 65° (ENE) 861 2.3 -5.6°
Drops below altitude 10° 19:49:41 10° 154° (SSE) 2,457 4.1 -6.4°
Enters shadow 19:51:16 - 154° (SSE) 3,057 4.6 -6.7°
